Вернуться в каталог

METEOR 2-5 DEB

АктивенPO
NORAD 35256·DEBRIS·🇷🇺 Russia

Запущен Oct 31, 1979 с Plesetsk Cosmodrome

Loading…

Ближайшие Пролёты (ближайшие 24 часа)

TLE

СвежийSource: Space-Track

Эпоха: Sep 13, 2026, 14:30 UTC

1 35256U 79095X   26256.60442286  .00005525  00000-0  15324-2 0  9998
2 35256  81.1872   7.1173 0007759 295.2019  64.8367 14.46454749661178

Отслеживайте METEOR 2-5 DEB в реальном времени с AllMySat

Download on the App Store